Location: Santa Clara
(37.3540°N, 121.9540°W)
Time: 00:59:07
(UTC-07:00)

X-37B - Pass Details

Date: 24 January 2022
Orbit: 329 x 342 km, 45.0° (Epoch: 18 May)

Event Time Altitude Azimuth Distance (km) Brightness Sun altitude
Rises 19:16:36 0° 231° (SW) 2,103 5.2 -22.4°
Reaches altitude 10° 19:18:37 10° 227° (SW) 1,266 3.9 -22.8°
Enters shadow 19:19:44 21° 220° (SW) 828 2.7 -23.0°
